Altus AFB, OK

3:40 AM CDT on August 17, 2017 (GMT -0500)
Altus Air Force Base

Weather History for KLTS - June, 2013

Change the Weather History Date:

Friday, June 14, 2013

  Actual Average Record
Temperature  
Mean Temperature 82 °F -  
Max Temperature 96 °F 89 °F 107 °F (2011)
Min Temperature 69 °F 65 °F 62 °F (1999)
Cooling Degree Days 17    
Growing Degree Days 32 (Base 50)    
Moisture  
Dew Point 63 °F    
Average Humidity 51    
Maximum Humidity 91    
Minimum Humidity 27    
Precipitation  
Precipitation 0.00 in - - ()
Sea Level Pressure  
Sea Level Pressure 29.92 in    
Wind  
Wind Speed 8 mph (South)    
Max Wind Speed 17 mph    
Max Gust Speed 25 mph    
Visibility 10 miles    
Events      
Averages and records for this station are not official NWS values.
T = Trace of Precipitation, MM = Missing Value Source: NWS Daily Summary

Daily Weather History Graph

Daily Weather History Graph

Search for Another Location

Airport or City:

Trip Planner

Search our weather history database for the weather conditions in past years. The results will help you decide how hot, cold, wet, or windy it might be!

Date:

Astronomy

Jun. 14, 2013 Rise Set
Actual Time 6:23 AM CDT 8:51 PM CDT
Civil Twilight 5:54 AM CDT 9:20 PM CDT
Nautical Twilight 5:17 AM CDT 9:57 PM CDT
Astronomical Twilight 4:37 AM CDT 10:37 PM CDT
Moon 11:48 AM CDT (6/14) 12:09 AM CDT (6/14)
Length of Visible Light 15h 26m
Length of Day
14h 27m
Waxing Crescent, 30% of the Moon is Illuminated
Jun 14
Waxing Crescent
Jun 16
First Quarter
Jun 23
Full
Jun 29
Last Quarter
Jul 8
New

Hourly Weather History & Observations

Time (CDT) Temp. Heat Index Dew Point Humidity Pressure Visibility Wind Dir Wind Speed Gust Speed Precip Events Conditions
12:58 AM 79.2 °F - 68.4 °F 69% 29.92 in 10.0 mi ESE 4.6 mph - N/A   Clear
1:58 AM 76.8 °F - 67.8 °F 74% 29.92 in 10.0 mi SSE 4.6 mph - N/A   Clear
2:58 AM 75.0 °F - 67.6 °F 78% 29.91 in 10.0 mi ESE 5.8 mph - N/A   Clear
3:58 AM 72.7 °F - 67.6 °F 84% 29.91 in 10.0 mi East 2.3 mph - N/A   Clear
4:58 AM 70.9 °F - 66.7 °F 87% 29.91 in 10.0 mi ESE 3.5 mph - N/A   Clear
5:58 AM 69.4 °F - 66.7 °F 91% 29.91 in 10.0 mi SE 3.5 mph - N/A   Clear
6:58 AM 70.9 °F - 66.9 °F 87% 29.93 in 10.0 mi SSE 3.5 mph - N/A   Clear
7:58 AM 77.2 °F - 66.0 °F 68% 29.94 in 10.0 mi SSW 5.8 mph - N/A   Clear
8:58 AM 84.6 °F 86.6 °F 65.7 °F 53% 29.95 in 10.0 mi SW 5.8 mph - N/A   Clear
9:58 AM 87.4 °F 89.5 °F 65.5 °F 48% 29.95 in 10.0 mi SW 8.1 mph - N/A   Clear
10:58 AM 88.5 °F 90.1 °F 64.9 °F 45% 29.95 in 10.0 mi SW 12.7 mph - N/A   Partly Cloudy
11:58 AM 91.9 °F 93.3 °F 63.7 °F 39% 29.95 in 10.0 mi South 16.1 mph 21.9 mph N/A   Scattered Clouds
12:49 PM 95.0 °F 96.0 °F 62.6 °F 34% 29.98 in 10.0 mi SE 16.1 mph 23.0 mph N/A   Scattered Clouds
12:58 PM 95.2 °F 96.3 °F 62.4 °F 34% 29.93 in 10.0 mi SSE 17.3 mph 23.0 mph N/A   Mostly Cloudy
1:58 PM 95.4 °F 95.3 °F 60.4 °F 31% 29.91 in 10.0 mi South 12.7 mph 25.3 mph N/A   Scattered Clouds
2:58 PM 95.9 °F 94.6 °F 56.8 °F 27% 29.90 in 10.0 mi SSW 16.1 mph 24.2 mph N/A   Mostly Cloudy
3:58 PM 91.6 °F 90.7 °F 58.3 °F 33% 29.90 in 10.0 mi SSW 16.1 mph - N/A   Partly Cloudy
4:58 PM 91.8 °F 90.9 °F 58.5 °F 33% 29.89 in 10.0 mi South 11.5 mph - N/A   Overcast
5:58 PM 91.6 °F 90.4 °F 57.9 °F 32% 29.88 in 10.0 mi SSW 15.0 mph 24.2 mph N/A   Overcast
6:58 PM 90.7 °F 89.0 °F 56.5 °F 31% 29.87 in 10.0 mi South 16.1 mph - N/A   Scattered Clouds
7:58 PM 88.7 °F 87.3 °F 56.8 °F 34% 29.87 in 10.0 mi SSW 13.8 mph - N/A   Scattered Clouds
8:58 PM 86.2 °F 85.0 °F 56.8 °F 37% 29.89 in 10.0 mi SW 9.2 mph - N/A   Scattered Clouds
9:58 PM 84.6 °F 83.9 °F 58.1 °F 40% 29.92 in 10.0 mi SW 6.9 mph - N/A   Scattered Clouds
10:58 PM 82.9 °F 83.2 °F 59.9 °F 46% 29.94 in 10.0 mi WSW 6.9 mph - N/A   Scattered Clouds
11:58 PM 82.0 °F 82.4 °F 60.3 °F 47% 29.94 in 10.0 mi WSW 12.7 mph - N/A   Scattered Clouds